KJ5MTR Weather Reports


Display with metric or nautical units.
time (UTC)temp
F
wind
direction
speed
MPH
gust
MPH
rain 1hr
in
rain 24hr
in
rain mn
in
humidity
%
barometer
mb
20260504173537 76 0.0 3.0 0.00 0.00 0.00 67 1013.5
20260504172516 76 0.0 6.0 0.00 0.00 0.00 67 1013.6
20260504171515 76 248 1.0 8.0 0.00 0.00 0.00 66 1013.9
20260504170515 76 0.0 6.0 0.00 0.00 0.00 66 1013.8
20260504150515 73 0.0 6.0 0.00 0.00 0.00 69 1014.5
20260504140517 68 225 1.0 11.0 0.00 0.00 0.00 75 1014.6
20260504130517 62 0.0 0.0 0.00 0.00 0.00 83 1014.5
20260504110557 60 0.0 0.0 0.00 0.00 0.00 85 1014.4
20260504100517 61 0.0 0.0 0.00 0.00 0.00 84 1014.5
20260504081517 62 0.0 0.0 0.00 0.00 0.00 79 1015.0
20260504080517 62 0.0 0.0 0.00 0.00 0.00 79 1015.1
20260504050557 65 0.0 0.0 0.00 0.00 0.00 71 1017.2
20260504045517 65 0.0 0.0 0.00 0.00 0.00 70 1017.2
20260504044517 65 0.0 0.0 0.00 0.00 0.00 69 1017.3
20260504043516 66 0.0 0.0 0.00 0.00 0.00 68 1017.3
20260504042517 66 0.0 0.0 0.00 0.00 0.00 67 1017.4
20260504041516 66 0.0 0.0 0.00 0.00 0.00 66 1017.6
20260504040516 66 0.0 0.0 0.00 0.00 0.00 64 1017.5
20260504035516 67 0.0 0.0 0.00 0.00 0.00 63 1017.6
20260504034517 67 0.0 0.0 0.00 0.00 0.00 61 1017.4
20260504033517 66 0.0 1.0 0.00 0.00 0.00 62 1017.3
20260504032518 65 0.0 0.0 0.00 0.00 0.00 63 1017.2
20260504031516 65 0.0 0.0 0.00 0.00 0.00 64 1017.3
20260504030516 65 0.0 0.0 0.00 0.00 0.00 64 1017.3
20260504025516 65 0.0 0.0 0.00 0.00 0.00 63 1017.2
20260504024536 65 0.0 0.0 0.00 0.00 0.00 64 1017.1
20260504023516 64 0.0 0.0 0.00 0.00 0.00 66 1016.9
20260504022516 63 0.0 0.0 0.00 0.00 0.00 68 1016.9
20260504021516 64 0.0 0.0 0.00 0.00 0.00 65 1016.8
20260504020516 66 0.0 0.0 0.00 0.00 0.00 61 1016.7
20260504015537 67 0.0 0.0 0.00 0.00 0.00 58 1016.4
20260504014517 68 0.0 0.0 0.00 0.00 0.00 55 1016.2
20260504013516 69 0.0 0.0 0.00 0.00 0.00 53 1016.2
20260504012516 70 0.0 0.0 0.00 0.00 0.00 51 1016.2
20260504011516 71 0.0 0.0 0.00 0.00 0.00 50 1016.1
20260504010517 72 0.0 0.0 0.00 0.00 0.00 48 1016.2
20260504005536 73 0.0 0.0 0.00 0.00 0.00 46 1016.1
20260504004518 74 0.0 0.0 0.00 0.00 0.00 45 1016.1
20260504003516 75 0.0 0.0 0.00 0.00 0.00 44 1016.1
20260504002516 76 0.0 1.0 0.00 0.00 0.00 44 1016.3
20260504001516 75 0.0 1.0 0.00 0.00 0.00 44 1016.3
20260504000516 76 0.0 0.0 0.00 0.00 0.00 43 1016.5
20260503235517 77 0.0 1.0 0.00 0.00 0.00 42 1016.7
20260503234516 78 0.0 0.0 0.00 0.00 0.00 42 1016.6
20260503233516 77 0.0 0.0 0.00 0.00 0.00 41 1016.9
20260503232516 77 0.0 1.0 0.00 0.00 0.00 40 1016.8
20260503231516 78 0.0 0.0 0.00 0.00 0.00 41 1016.7
20260503230516 79 0.0 0.0 0.00 0.00 0.00 38 1016.7
20260503225516 80 0.0 1.0 0.00 0.00 0.00 38 1016.9
20260503224516 81 0.0 0.0 0.00 0.00 0.00 36 1017.0
20260503223516 81 0.0 1.0 0.00 0.00 0.00 37 1017.2
20260503222516 81 0.0 1.0 0.00 0.00 0.00 36 1017.1
20260503221517 81 0.0 4.0 0.00 0.00 0.00 35 1017.5
20260503220516 80 0.0 3.0 0.00 0.00 0.00 36 1017.5
20260503215516 80 0.0 1.0 0.00 0.00 0.00 39 1017.5
20260503214516 80 0.0 1.0 0.00 0.00 0.00 38 1017.8
20260503213516 80 0.0 1.0 0.00 0.00 0.00 38 1018.1
20260503212516 80 0.0 1.0 0.00 0.00 0.00 36 1018.1
20260503211516 81 0.0 0.0 0.00 0.00 0.00 35 1018.4
20260503210516 81 0.0 2.0 0.00 0.00 0.00 35 1018.6
20260503205516 81 0.0 1.0 0.00 0.00 0.00 37 1018.7
20260503204516 81 0.0 3.0 0.00 0.00 0.00 37 1018.8
20260503203516 81 0.0 2.0 0.00 0.00 0.00 39 1018.9
20260503202516 81 0.0 5.0 0.00 0.00 0.00 38 1019.4
20260503201537 81 0.0 10.0 0.00 0.00 0.00 35 1019.4
20260503200516 81 0.0 0.0 0.00 0.00 0.00 39 1019.6
20260503195515 82 0.0 0.0 0.00 0.00 0.00 39 1019.9
20260503194516 81 0.0 2.0 0.00 0.00 0.00 35 1019.8
20260503193536 81 0.0 2.0 0.00 0.00 0.00 37 1020.0
20260503192516 81 0.0 9.0 0.00 0.00 0.00 37 1020.1
20260503191515 81 0.0 3.0 0.00 0.00 0.00 39 1020.3
20260503190515 81 0.0 2.0 0.00 0.00 0.00 35 1020.4
20260503185517 81 0.0 0.0 0.00 0.00 0.00 38 1020.6
20260503184516 80 0.0 2.0 0.00 0.00 0.00 36 1020.8
20260503183515 81 0.0 3.0 0.00 0.00 0.00 38 1021.0
20260503182515 80 0.0 1.0 0.00 0.00 0.00 38 1021.2
20260503181535 79 0.0 7.0 0.00 0.00 0.00 38 1021.2
20260503180536 79 0.0 5.0 0.00 0.00 0.00 37 1021.6
20260503175536 80 0.0 4.0 0.00 0.00 0.00 41 1021.7
20260503174516 79 0.0 1.0 0.00 0.00 0.00 38 1021.9